This is the latest recevied weather packets stored in our database for station/object K5UTC. If no packets are shown the sender has not sent any weather packets the latest 10 day(s).
| Time | Temp. | Humidity | Pressure | Rain* | Wind** | Luminosity | Snow |
|---|---|---|---|---|---|---|---|
| 1778176867 | 20° C | 69% | 1013.8 hPa | 0 mm | - | 911 W/m² | - |
| 1778176562 | 20° C | 64% | 1013.8 hPa | 0 mm | - | 219 W/m² | - |
| 1778176260 | 20.56° C | 61% | 1013.8 hPa | 0 mm | - | 1062 W/m² | - |
| 1778175957 | 20° C | 63% | 1013.8 hPa | 0 mm | - | 933 W/m² | - |
| 1778175654 | 20° C | 65% | 1013.8 hPa | 0 mm | - | 980 W/m² | - |
| 1778175351 | 19.44° C | 66% | 1013.9 hPa | 0 mm | - | 593 W/m² | - |
| 1778175049 | 19.44° C | 63% | 1013.9 hPa | 0 mm | - | 303 W/m² | - |
| 1778174744 | 20° C | 62% | 1013.8 hPa | 0 mm | - | 639 W/m² | - |
| 1778174441 | 20.56° C | 62% | 1014 hPa | 0 mm | - | 415 W/m² | - |
| 1778174136 | 20° C | 64% | 1013.8 hPa | 0 mm | - | 960 W/m² | - |
| 1778173834 | 19.44° C | 67% | 1013.7 hPa | 0 mm | - | 868 W/m² | - |
| 1778173530 | 19.44° C | 69% | 1013.8 hPa | 0 mm | - | 266 W/m² | - |
| 1778173228 | 19.44° C | 64% | 1013.9 hPa | 0 mm | - | 870 W/m² | - |
| 1778172923 | 19.44° C | 65% | 1013.9 hPa | 0 mm | - | 920 W/m² | - |
| 1778172620 | 19.44° C | 63% | 1014 hPa | 0 mm | - | 242 W/m² | - |
| 1778172316 | 18.89° C | 65% | 1014.1 hPa | 0 mm | - | 843 W/m² | - |
| 1778172013 | 18.89° C | 67% | 1014.1 hPa | 0 mm | - | 789 W/m² | - |
| 1778171710 | 18.89° C | 69% | 1014.4 hPa | 0 mm | - | 918 W/m² | - |
| 1778171409 | 18.33° C | 68% | 1014 hPa | 0 mm | - | 807 W/m² | - |
| 1778171103 | 18.89° C | 67% | 1013.9 hPa | 0 mm | - | 801 W/m² | - |
| 1778170800 | 18.89° C | 67% | 1014.2 hPa | 0 mm | - | 783 W/m² | - |
| 1778170496 | 18.89° C | 67% | 1014.2 hPa | 0 mm | - | 772 W/m² | - |
| 1778170194 | 18.33° C | 71% | 1014.2 hPa | 0 mm | - | 765 W/m² | - |
| 1778169889 | 18.33° C | 72% | 1014 hPa | 0 mm | - | 760 W/m² | - |
| 1778169585 | 18.33° C | 77% | 1013.9 hPa | 0 mm | - | 732 W/m² | - |
* Rain latest hour (hover to see other rain measurements)
** Current wind speed in m/s (hover to see current wind gust speed)